STARLINK-3781

operational
NORAD ID: 52272 Int'l Des: 2022-041 Owner: SPXS Country: US Constellation: starlink
LEOCIRCULAR

关于 STARLINK-3781

正在加载描述...

实时位置

正在加载3D地球...

即将过境

高度历史

Altitude vs Time

uPlot chart will show altitude changes over time

两行轨道根数

1 52272U 22041M 25251.58950068 .00000194 00000-0 30269-4 0 9991
2 52272 53.2179 206.6405 0001402 89.0161 271.0992 15.08835974186872
Epoch: Sep 8, 2025 • Age: 10 hours

当前状态

高度 540.0 km
速度 7.60 km/s
星下点 22.32°N, 13.3°E
发射日期 Apr 21, 2022
运行时间 3.3 years
类型 internet

技术详情

分类 Payload
质量 297.00 kg
干质量 275.00 kg
总质量 297.00 kg
长度 0.20 m
直径 2.80 m
跨度 9.00 m
形状 Box + pan
制造商 SPXS
平台类型 Starlink
阶段状态 In Orbit
所有者/国家 SPXS/US

大型星座

Loading constellations...